Weather History for KMTN - March, 2013

Change the Weather History Date:

Monday, March 4, 2013

  Actual Average Record
Temperature  
Mean Temperature 35 °F -  
Max Temperature 42 °F 45 °F 62 °F (2008)
Min Temperature 28 °F 31 °F 8 °F (2014)
Degree Days  
Heating Degree Days 30    
Moisture  
Dew Point 18 °F    
Average Humidity 55    
Maximum Humidity 64    
Minimum Humidity 39    
Precipitation  
Precipitation 0.00 in - - ()
Sea Level Pressure  
Sea Level Pressure 29.96 in    
Wind  
Wind Speed 16 mph (WNW)    
Max Wind Speed 25 mph    
Max Gust Speed 31 mph    
Visibility 10 miles    
Events      
Averages and records for this station are not official NWS values.
T = Trace of Precipitation, MM = Missing Value Source: NWS Daily Summary

Daily Weather History Graph

Daily Weather History Graph

Search for Another Location

Airport or City:

Trip Planner

Search our weather history database for the weather conditions in past years. The results will help you decide how hot, cold, wet, or windy it might be!

Date:

Astronomy

Mar. 04, 2013 Rise Set
Actual Time 6:33 AM EST 6:01 PM EST
Civil Twilight 6:06 AM EST 6:28 PM EST
Nautical Twilight 5:35 AM EST 6:59 PM EST
Astronomical Twilight 5:04 AM EST 7:30 PM EST
Moon 12:39 AM EST (3/4) 10:42 AM EST (3/4)
Length of Visible Light 12h 21m
Length of Day
11h 27m
Waning Gibbous, 52% of the Moon is Illuminated
Mar 4
Waning Gibbous
Mar 4
Last Quarter
Mar 11
New
Mar 19
First Quarter
Mar 27
Full

Hourly Weather History & Observations

Time (EST) Temp. Windchill Dew Point Humidity Pressure Visibility Wind Dir Wind Speed Gust Speed Precip Events Conditions
12:03 AM 32.0 °F 20.5 °F 19.4 °F 60% 29.90 in 10.0 mi West 18.4 mph - N/A   Clear
12:21 AM 32.0 °F 20.8 °F 19.4 °F 60% 29.90 in 10.0 mi West 17.3 mph 23.0 mph N/A   Mostly Cloudy
12:42 AM 32.0 °F 22.1 °F 19.4 °F 60% 29.91 in 10.0 mi West 13.8 mph - N/A   Overcast
1:03 AM 32.0 °F 22.1 °F 19.4 °F 60% 29.91 in 10.0 mi West 13.8 mph 21.9 mph N/A   Mostly Cloudy
1:21 AM 32.0 °F 20.5 °F 19.4 °F 60% 29.91 in 10.0 mi West 18.4 mph 21.9 mph N/A   Scattered Clouds
1:42 AM 32.0 °F 20.8 °F 17.6 °F 55% 29.92 in 10.0 mi West 17.3 mph 26.5 mph N/A   Scattered Clouds
2:03 AM 32.0 °F 20.5 °F 17.6 °F 55% 29.92 in 10.0 mi West 18.4 mph 23.0 mph N/A   Clear
2:21 AM 32.0 °F 21.2 °F 17.6 °F 55% 29.92 in 10.0 mi West 16.1 mph 21.9 mph N/A   Clear
2:42 AM 32.0 °F 20.5 °F 17.6 °F 55% 29.92 in 10.0 mi WNW 18.4 mph 23.0 mph N/A   Clear
3:03 AM 32.0 °F 21.2 °F 17.6 °F 55% 29.92 in 10.0 mi WNW 16.1 mph 21.9 mph N/A   Clear
3:21 AM 32.0 °F 21.2 °F 17.6 °F 55% 29.92 in 10.0 mi West 16.1 mph 23.0 mph N/A   Clear
3:42 AM 30.2 °F 18.5 °F 17.6 °F 60% 29.92 in 10.0 mi West 17.3 mph 25.3 mph N/A   Clear
4:00 AM 30.2 °F 17.8 °F 17.6 °F 60% 29.93 in 10.0 mi West 19.6 mph 23.0 mph N/A   Clear
4:21 AM 30.2 °F 18.5 °F 15.8 °F 55% 29.94 in 10.0 mi West 17.3 mph 26.5 mph N/A   Clear
4:42 AM 30.2 °F 19.8 °F 15.8 °F 55% 29.94 in 10.0 mi West 13.8 mph 27.6 mph N/A   Clear
5:03 AM 30.2 °F 18.5 °F 15.8 °F 55% 29.94 in 10.0 mi West 17.3 mph 24.2 mph N/A   Clear
5:21 AM 30.2 °F 19.3 °F 15.8 °F 55% 29.95 in 10.0 mi West 15.0 mph - N/A   Clear
5:55 AM 28.4 °F 16.6 °F 15.8 °F 59% 29.96 in 10.0 mi West 16.1 mph - N/A   Clear
6:54 AM 28.4 °F 16.2 °F 15.8 °F 59% 29.98 in 10.0 mi WNW 17.3 mph - N/A   Partly Cloudy
7:54 AM 30.2 °F 19.3 °F 15.8 °F 55% 29.99 in 10.0 mi WNW 15.0 mph 20.7 mph N/A   Partly Cloudy
8:50 AM 32.0 °F 18.6 °F 15.8 °F 51% 29.99 in 10.0 mi West 25.3 mph 31.1 mph N/A   Partly Cloudy
9:45 AM 35.6 °F 24.5 °F 17.6 °F 48% 30.00 in 10.0 mi WNW 20.7 mph 28.8 mph N/A   Partly Cloudy
10:45 AM 35.6 °F 24.0 °F 17.6 °F 48% 29.99 in 10.0 mi WNW 23.0 mph 28.8 mph N/A   Scattered Clouds
11:50 AM 39.2 °F 30.2 °F 17.6 °F 42% 29.98 in 10.0 mi WNW 17.3 mph 24.2 mph N/A   Partly Cloudy
12:45 PM 41.0 °F 32.8 °F 19.4 °F 42% 29.96 in 10.0 mi West 16.1 mph 27.6 mph N/A   Partly Cloudy
2:45 PM 42.8 °F 33.8 °F 19.4 °F 39% 29.93 in 10.0 mi West 21.9 mph 28.8 mph N/A   Partly Cloudy
5:45 PM 41.0 °F 32.5 °F 17.6 °F 39% 29.96 in 10.0 mi WNW 17.3 mph 28.8 mph N/A   Partly Cloudy
6:50 PM 37.4 °F 30.8 °F 19.4 °F 48% 29.99 in 10.0 mi WNW 9.2 mph 26.5 mph N/A   Partly Cloudy
7:55 PM 35.6 °F 28.6 °F 19.4 °F 52% 30.01 in 10.0 mi WNW 9.2 mph 28.8 mph N/A   Partly Cloudy
9:45 PM 32.0 °F 27.5 °F 19.4 °F 60% 30.04 in 10.0 mi WNW 4.6 mph - N/A   Partly Cloudy
10:24 PM 30.2 °F 26.7 °F 19.4 °F 64% 30.04 in 10.0 mi West 3.5 mph - N/A   Clear
10:45 PM 32.0 °F 28.7 °F 19.4 °F 60% 30.04 in 10.0 mi WNW 3.5 mph - N/A   Clear
11:03 PM 32.0 °F 28.7 °F 19.4 °F 60% 30.04 in 10.0 mi WNW 3.5 mph - N/A   Clear
11:24 PM 32.0 °F - 19.4 °F 60% 30.03 in 10.0 mi Calm Calm - N/A   Clear
11:45 PM 32.0 °F 27.5 °F 19.4 °F 60% 30.03 in 10.0 mi NW 4.6 mph - N/A   Clear